Dewpoint
39 40 40 41 42 44 43 39 31 44 48 35 34 32 31 30 26 27 26 27 26 22 20 20 25 23 25 26 25 23 25 25 21 20 24 21 18 20 23 28 25 29 28 26
40 39 40 41 42 43 43 35 36 44 44 30 31 30 27 29 25 23 31 28 25 26 24 21 26 30 35 34 28 29 29 31 25 18 23 23 21 20 22 27 29 26 25 23
39 39 39 40 41 42 43 34 31 35 39 37 34 29 26 26 28 26 32 30 30 24 24 26 22 33 35 34 33 39 38 29 26 21 19 24 27 24 27 29 29 28 26 27
39 39 39 40 40 42 43 34 32 34 30 31 34 30 26 25 25 27 28 34 31 29 25 21 23 28 31 31 35 31 33 28 25 21 18 19 26 29 32 32 34 32 30 28
38 38 39 40 41 41 39 32 34 35 32 34 33 30 28 24 24 25 26 31 28 28 27 31 30 30 30 25 28 28 31 26 25 23 23 24 26 34 31 29 29 29 30 27
38 38 39 41 41 42 36 38 38 36 32 30 32 31 30 26 26 26 24 29 29 27 26 30 32 34 34 32 30 30 29 29 25 22 22 26 25 28 26 25 21 19 18 21
37 38 40 41 41 41 40 39 39 33 27 32 33 30 30 28 26 26 24 28 27 25 33 34 34 33 32 31 31 31 32 33 32 26 25 21 24 24 23 21 20 20 19 19
39 40 40 40 41 41 41 41 38 34 31 30 32 32 30 30 28 27 22 22 31 36 34 29 28 26 29 28 26 27 29 29 28 27 26 24 20 18 23 28 25 26 26 26
38 39 39 40 40 41 42 41 41 38 33 32 31 31 32 33 32 31 32 34 40 39 37 33 25 22 22 19 23 26 27 30 29 29 23 20 26 20 18 26 26 28 28 28
38 39 39 41 42 41 42 42 42 39 35 33 36 33 34 34 32 34 33 37 35 38 33 27 22 21 20 21 20 25 25 26 24 24 22 23 23 19 21 20 25 31 32 36
38 38 39 41 41 42 42 41 44 39 38 35 35 35 35 35 35 33 34 34 34 35 30 27 27 25 23 22 28 21 26 27 23 24 22 20 26 26 23 34 37 34 35 38
37 39 42 41 43 43 43 39 45 46 41 36 38 36 38 38 36 31 34 28 30 32 28 27 26 26 28 21 21 21 22 28 28 29 28 36 32 34 34 37 35 35 36 40
40 41 42 41 43 43 42 41 43 42 38 36 34 33 36 37 37 42 35 33 31 33 34 35 33 27 25 24 25 24 24 24 25 27 26 25 28 32 32 34 33 33 34 37
41 43 41 42 42 43 43 40 41 37 31 32 27 29 29 33 35 35 35 35 35 36 37 34 34 29 29 28 31 28 32 31 28 30 32 32 27 30 32 33 31 32 34 35
39 41 42 42 40 41 43 40 38 36 29 30 29 28 27 29 32 32 33 33 33 32 32 32 29 27 30 32 32 28 27 30 29 28 32 33 36 39 39 35 32 33 33 32
39 40 42 41 39 42 37 36 36 34 32 32 25 31 26 28 29 30 32 32 32 32 34 30 28 31 34 28 25 25 28 32 35 36 37 36 35 38 35 33 32 33 33 31
39 38 41 41 41 44 38 36 38 37 35 36 26 25 34 33 28 32 31 34 37 36 35 32 30 32 33 31 26 26 25 31 32 32 33 31 30 30 31 31 31 33 31 30
39 39 40 42 41 39 38 39 41 38 35 32 26 27 33 37 32 32 36 36 37 35 34 33 29 31 33 28 26 29 31 32 32 32 31 31 31 29 28 29 30 30 29 29
40 40 41 37 38 31 37 42 42 43 37 27 23 23 26 37 33 34 35 37 32 34 30 27 29 29 27 28 26 32 34 33 31 31 29 28 28 26 26 27 28 28 28 28
41 37 31 34 33 41 41 37 35 36 35 34 29 29 30 34 34 31 33 31 28 26 28 30 29 28 26 25 29 34 31 31 31 30 29 28 27 26 26 26 27 28 28 28
36 34 34 39 41 34 32 30 26 27 27 29 27 26 31 36 32 29 32 29 29 22 28 27 26 24 31 32 30 31 31 31 30 29 30 30 28 27 27 27 28 28 27 27
38 38 39 36 31 33 26 25 26 25 22 30 29 29 33 35 37 34 32 30 29 23 32 28 26 33 33 32 31 31 31 30 28 27 28 30 28 29 29 28 28 28 29 29
39 36 31 32 29 26 23 21 23 28 34 33 34 33 35 35 36 32 32 27 26 31 29 22 30 30 31 31 30 30 31 30 30 31 32 31 31 31 30 30 30 29 26 25
34 32 29 29 26 27 27 31 33 35 36 35 36 35 35 35 32 33 28 30 28 23 19 19 30 29 31 32 31 30 31 32 30 31 31 30 31 31 31 30 28 25 24 24
34 31 26 26 30 32 34 35 34 35 37 37 34 32 32 30 31 30 26 24 20 20 23 31 32 33 32 33 33 32 31 30 29 29 29 29 30 29 29 30 28 27 25 24
31 28 29 32 32 31 33 34 34 35 38 37 34 26 30 25 25 20 21 15 16 28 32 34 34 33 34 33 32 31 31 29 28 28 28 28 29 28 28 29 28 27 26 24
27 32 33 33 34 33 33 34 35 35 35 33 25 23 20 26 19 15 21 26 30 33 34 35 35 33 32 31 30 30 30 29 28 28 27 28 28 28 27 25 26 26 25 25
Lifted_Index
6 6 6 5 5 4 5 5 5 4 3 2 2 2 2 2 1 1 1 1 1 1 1 1 0 0 0 1 2 3 3 2 2 2 3 3 2 1 0 0 0 0 1 2
5 5 5 5 4 4 4 5 5 4 3 2 2 2 2 1 1 1 1 1 1 1 1 1 1 0 1 1 1 2 2 2 2 2 2 2 1 1 0 -0 0 1 1 2
5 5 5 4 4 3 3 4 4 3 2 2 2 2 2 1 1 1 1 1 1 1 1 1 1 1 1 1 1 1 1 1 1 2 2 1 1 1 0 -0 0 1 1 1
4 4 4 4 3 3 3 4 3 3 2 2 2 2 1 1 1 1 1 1 1 1 1 1 1 1 2 2 2 1 1 1 1 2 2 1 1 1 0 0 0 0 1 1
4 4 3 3 3 3 3 4 3 3 2 2 2 1 1 1 1 1 1 1 0 0 1 1 1 2 2 2 2 2 1 2 2 2 2 1 1 1 1 1 1 1 1 1
3 3 3 3 2 3 4 4 4 3 2 2 2 1 1 1 1 0 0 0 0 0 0 0 1 1 1 1 1 1 1 1 2 2 2 1 1 1 1 1 1 1 1 1
3 3 2 2 2 2 3 3 3 3 2 2 1 1 1 1 0 0 -0 -0 0 0 0 0 1 1 1 1 1 1 1 1 1 1 1 1 1 1 1 0 1 1 1 1
3 3 2 2 2 1 2 2 2 2 2 1 1 1 1 0 0 -0 -0 -0 -0 -0 0 1 1 1 1 1 1 1 1 1 1 1 0 0 1 1 1 0 0 1 1 1
3 3 3 2 1 1 1 1 2 2 2 1 1 0 1 0 0 0 -0 -0 -0 -0 0 1 1 1 1 1 1 1 1 1 1 1 0 1 1 2 1 0 0 0 0 -0
3 3 3 2 1 0 0 1 2 2 2 1 0 0 0 0 0 0 -0 -0 -0 -0 0 1 1 1 0 0 0 0 0 0 1 1 1 1 1 1 1 0 0 0 -0 -0
3 3 2 1 1 0 1 1 2 2 1 1 0 0 0 0 -0 -0 -0 -0 -0 -0 0 0 0 0 0 0 0 0 0 0 0 0 1 1 1 1 0 0 -0 -0 -0 -0
3 2 2 1 1 1 1 1 1 1 1 0 0 -0 -0 -0 -0 -1 -1 -1 -1 -0 0 0 -0 -0 -0 -0 -0 -0 -0 -0 -0 0 0 0 0 0 0 -0 -0 0 0 0
3 2 2 2 2 2 2 2 1 1 1 1 1 0 0 -0 -1 -1 -1 -1 -0 -0 -0 -0 -0 -0 -0 -0 -0 -0 -0 -0 -0 -0 0 -0 -0 -0 -0 -0 0 0 1 1
3 2 2 2 2 2 2 2 2 2 1 1 1 1 1 0 -0 -1 -1 -1 -1 -1 -0 -0 -0 -0 0 0 0 0 -0 -0 -0 -0 -0 -0 -1 -1 -0 -0 0 1 1 1
3 2 2 2 2 2 2 2 2 2 1 1 1 1 1 0 0 -0 -1 -1 -1 -1 -1 -0 -0 -0 0 0 0 0 -0 -0 -0 -1 -1 -1 -1 -0 -0 -0 1 1 2 2
2 2 2 2 2 1 1 1 1 1 1 1 0 0 0 0 0 0 -0 -0 -1 -1 -1 -0 -0 -0 -0 -0 0 0 -0 -0 -0 -0 -0 0 0 0 0 1 1 2 2 2
2 2 2 1 1 1 1 1 1 1 1 1 1 0 0 0 1 1 1 1 0 -0 -0 -0 -0 -0 -0 0 0 0 -0 -0 0 0 1 1 1 1 2 2 2 3 3 3
2 2 1 1 1 1 1 1 1 1 1 1 1 1 1 1 1 1 1 1 0 -0 -0 -0 -0 -0 0 0 0 0 -0 0 0 1 1 2 2 2 2 3 3 3 3 3
2 2 1 1 1 1 1 2 2 2 2 2 2 1 1 1 2 2 1 1 0 0 -0 -0 -0 0 0 1 0 -0 -0 0 1 2 2 2 2 2 3 3 3 3 4 4
2 2 2 2 2 2 2 2 2 3 3 2 2 1 1 1 2 1 1 1 0 0 0 0 0 0 0 0 0 0 1 1 2 2 3 3 2 3 3 4 4 5 5 5
2 2 2 2 2 2 2 2 2 3 2 2 2 1 1 1 1 1 0 0 -0 0 0 0 0 0 0 0 0 1 2 3 3 3 4 4 4 4 4 4 5 5 6 6
2 2 2 2 2 2 2 2 2 2 1 1 1 1 1 1 1 1 0 -0 -0 -0 0 0 0 0 0 1 1 2 3 4 4 4 5 5 5 5 5 5 5 6 7 8
2 2 2 2 2 2 1 1 1 1 1 1 1 1 1 1 1 1 0 0 0 0 0 0 0 1 1 2 2 3 4 4 5 5 5 6 6 6 6 6 6 7 8 8
2 1 1 1 1 1 1 1 1 0 0 0 0 1 1 1 1 1 1 1 1 1 1 1 1 2 2 3 3 3 4 4 5 5 6 6 6 6 5 6 6 7 7 8
1 1 1 1 1 1 1 1 1 1 0 -0 0 1 1 1 1 1 1 1 1 1 1 1 2 2 3 3 3 4 4 5 5 6 6 5 5 5 5 6 6 7 7 7
1 1 1 1 1 1 2 2 2 1 0 0 1 1 1 2 2 2 2 2 2 2 2 2 3 3 3 3 4 4 5 5 6 6 5 5 5 5 5 6 6 7 7 7
2 2 2 2 1 2 2 2 2 1 1 1 1 2 2 2 2 2 2 2 2 2 3 3 3 3 3 4 4 5 5 6 6 5 5 5 5 6 6 6 6 7 7 7